Regional Weather Roundup
Issued by NWS

Home | Current Version | Previous Version | Text Only | Print | Product List | Glossary On
Versions: 1 2 3 4 5 6 7 8 9 10 11 12 13 14 15 16 17 18 19 20 21 22 23 24 25 26 27 28 29 30 31 32 33 34 35 36 37 38 39 40 41 42 43 44 45 46 47 48 49 50
000
ASUS44 KFWD 240315
RWRTX
NORTH TEXAS HOURLY WEATHER ROUNDUP
NATIONAL WEATHER SERVICE FORT WORTH TX
1000 PM CDT SAT JUL 23 2016

NOTE: "FAIR" INDICATES FEW OR NO CLOUDS BELOW 12,000 FEET WITH NO
SIGNIFICANT WEATHER AND/OR OBSTRUCTIONS TO VISIBILITY.

TXZ118-119-240400-
DALLAS/FORT WORTH METROPLEX

CITY           SKY/WX    TMP DP  RH WIND       PRES   REMARKS
DFW AIRPORT    CLEAR     91  69  48 SE9       29.89R HX  96
DALLAS LOVE    CLEAR     93  71  48 SE12      29.90R HX 100
FTW MEACHAM    CLEAR     93  69  45 SE9       29.90R HX  98
DAL-EXECUTIVE  CLEAR     91  69  48 SE9       29.90S HX  96
FTW-ALLIANCE   PTCLDY    89  69  51 SE7       29.90R HX  93
FTW-NAS-JRB    CLEAR     94  67  41 SE10      29.91R HX  97
FTW-SPINKS     CLEAR     84  71  63 SE6       29.93R
ARLINGTON      CLEAR     89  70  53 SE7       29.91R HX  94
GRAND PRAIRIE  CLEAR     91  68  46 SE5       29.92R HX  94
ADDISON        CLEAR     91  70  49 SE12      29.91R HX  97
MESQUITE       CLEAR     87  71  59 SE7       29.91S HX  92
LANCASTER      CLEAR     89  71  54 E3        29.92R HX  94
$$

TXZ091>094-102>105-117-120-121-131>134-240400-
NORTH CENTRAL TEXAS

CITY           SKY/WX    TMP DP  RH WIND       PRES   REMARKS
SHRMAN/DENISON CLEAR     91  70  50 E7        29.92R HX  96
GAINESVILLE    CLEAR     83  71  66 SE3       29.93R
BOWIE          CLEAR     85  70  60 CALM      29.92R HX  90
BRIDGEPORT     CLEAR     86  69  57 SE7       29.92R
DECATUR        CLEAR     87  65  48 SE8       29.92S
DENTON         CLEAR     84  72  67 SE7       29.90R
MCKINNEY       CLEAR     89  72  56 SE8       29.91R HX  96
GREENVILLE     CLEAR     82  70  65 SE5       29.93R
ROCKWALL       HAZE      88  73  59 S6        29.91R VSB<1/4 HX  95
TERRELL        CLEAR     89  71  55 SE6       29.91F HX  95
WAXAHACHIE     CLEAR     87  71  58 CALM      29.93R HX  92
CLEBURNE       CLEAR     88  68  51 SE9       29.94R HX  91
GRANBURY       CLEAR     91  65  43 SE5       29.92R HX  93
$$

TXZ083>090-098>101-113>116-127>130-139>142-154-155-240400-
WESTERN NORTH TEXAS

CITY           SKY/WX    TMP DP  RH WIND       PRES   REMARKS
WICHITA FALLS  CLEAR     88  68  51 SE16      29.88R HX  91
WF-KICKAPOO    CLEAR     90  67  47 SE12G20   29.90R HX  93
VERNON         CLEAR     87  60  39 SE7       29.88R
ABILENE        CLEAR     88  60  38 SE10      29.92R
ABILENE-DYESS  CLEAR     89  63  41 E8        29.91R HX  90
CISCO          CLEAR     86  63  45 SE6       29.94R
BRECKENRIDGE   CLEAR     88  60  38 SE8       29.91R
GRAHAM         CLEAR     87  64  46 E6        29.89R
MINERAL WELLS  CLEAR     85  67  54 SE7       29.90R
STEPHENVILLE   CLEAR     87  62  43 SE7       29.96R
COMANCHE       CLEAR     85  63  47 SE5       29.93R
BROWNWOOD      CLEAR     88  63  42 SE10      29.92R
COLEMAN        CLEAR     88  56  34 SE9       29.92R
$$

TXZ143>147-156>162-174-175-240400-
CENTRAL TEXAS

CITY           SKY/WX    TMP DP  RH WIND       PRES   REMARKS
WACO           CLEAR     88  68  51 SE7       29.90R HX  91
WACO-TSTC      CLEAR     86  68  54 CALM      29.91R
HILLSBORO      CLEAR     86  68  54 E6        29.92R
CORSICANA      CLEAR     88  75  65 E7        29.92R HX  97
MEXIA          CLEAR     86  70  59 CALM      29.91R HX  90
HEARNE         CLEAR     87  70  56 CALM      29.91R HX  92
CAMERON        CLEAR     87  71  57 E3        29.90R HX  93
TEMPLE         CLEAR     87  69  54 E6        29.92R HX  91
KILLEEN        CLEAR     89  66  46 E8        29.91R HX  91
KILLEEN-SKYLRK CLEAR     89  70  53 SE8       29.92R HX  94
FORT HOOD      CLEAR     88  68  51 SE7       29.90R HX  92
GATESVILLE     CLEAR     88  68  51 CALM      29.94R HX  91
HAMILTON       CLEAR     87  65  46 SE8       29.95R
LAMPASAS       CLEAR     86  69  57 E5        29.93R HX  90
$$

TXZ095>097-106>112-122>126-135>138-148>153-164>167-240400-
EAST TEXAS

CITY           SKY/WX    TMP DP  RH WIND       PRES   REMARKS
PARIS          PTCLDY    79  61  53 SE10      29.95R
SULPHUR SPRNGS CLEAR     81  71  72 E6        29.96R
MOUNT PLEASANT MOCLDY    79  72  77 E3        29.97R
GILMER         CLOUDY    79  71  75 SE8       29.93F
MINEOLA        CLOUDY    82  73  74 SE6       29.93F
TYLER          CLEAR     84  70  62 E13       29.95S
LONGVIEW       LGT RAIN  77  73  87 S7        29.92F
MARSHALL       CLOUDY    75  72  88 CALM      29.97F
ATHENS         CLEAR     82  72  69 CALM      29.91S
PALESTINE      CLEAR     85  76  74 E3        29.94R HX  95
JACKSONVILLE   MOCLDY    84  73  69 NE10      30.00R
HENDERSON      LGT RAIN  78  74  86 CALM      29.96F
CENTER         CLOUDY    83  73  71 N6        29.97R HX  90
NACOGDOCHES    MOCLDY   N/A N/A N/A N9        29.95R
LUFKIN         CLEAR     84  75  74 CALM      29.94R HX  92
$$

SUPPLEMENTAL OBSERVATIONS (CENTRAL)

CITY           SKY/WX    TMP DP  RH WIND       PRES   REMARKS
DENISON DAM      N/A     84  70  61 E7          N/A
CADDO GRASSLND   N/A     81  70  69 SE2         N/A
PAT MAYSE LAKE   N/A     81  66  61 N1          N/A
LAKE LIMESTONE   N/A     84  70  61 E2          N/A
MCGREGOR         N/A     88  66  48 SE5         N/A  HX  90
TEMPLE           N/A     90  68  48 E5          N/A  HX  93
$$

SUPPLEMENTAL OBSERVATIONS (WEST)

CITY           SKY/WX    TMP DP  RH WIND       PRES   REMARKS
MILLERS CREEK    N/A     90  64  43 SE9         N/A  HX  91
POSSUM KINGDOM   N/A     90  63  40 SE8         N/A  HX  90
LBJ GRASSLAND    N/A     90  68  48 SE8         N/A  HX  93
GRANBURY         N/A     91  66  43 SE7         N/A  HX  94
COMANCHE         N/A     84  63  48 SE8         N/A
HAMBY            N/A     86  59  39 SE7         N/A
IVIE RESERVOIR   N/A     90  55  31 E8          N/A
COLORADO BEND    N/A     88  63  42 S6          N/A
$$

SUPPLEMENTAL OBSERVATIONS (EAST)

CITY           SKY/WX    TMP DP  RH WIND       PRES   REMARKS
CLARKSVILLE      N/A     75  70  83 S3          N/A
TEXARKANA        N/A     75  73  94 NE5         N/A
LINDEN           N/A     75  72  88 E2          N/A
CADDO LAKE       N/A     73  68  83 CALM        N/A
GILMER           N/A     79  68  69 S5G13       N/A
HENDERSON        N/A     79  73  83 SE5G20      N/A
LUFKIN           N/A     88  73  62 MISG        N/A  HX  96
N SABINE NF      N/A     82  75  78 MISG        N/A
S SABINE NF      N/A     81  77  89 CALM        N/A
$$

SUPPLEMENTAL OBSERVATIONS ARE A COLLECTION OF AUTOMATED INSTRUMENTS
THAT ARE MAINTAINED BY A VARIETY OF FEDERAL AND STATE AGENCIES.
CERTAIN ELEMENTS...SUCH AS HUMIDITY VALUES AND SUSTAINED WIND
SPEEDS...MAY BE APPROXIMATED.




USA.gov is the U.S. government's official web portal to all federal, state and local government web resources and services.